AirNav   Pilot Hours Calculator
 
 901 users online  

25AK Honeybee Lake Aero Park Airport
Willow, Alaska, USA

GOING TO WILLOW?


FAA INFORMATION EFFECTIVE 15 JULY 2021

Location

FAA Identifier: 25AK
Lat/Long: 61-42-44.0600N 150-03-47.9900W
61-42.734333N 150-03.799833W
61.7122389,-150.0633306
(estimated)
Elevation: 200 ft. / 61 m (estimated)
Variation: 24E (1995)
From city: 1 mile N of WILLOW, AK
Time zone: UTC -8 (UTC -9 during Standard Time)
Zip code: 99688

Airport Operations

Airport use: Private use. Permission required prior to landing
Activation date: 03/2000
Control tower: no
ARTCC: ANCHORAGE CENTER
FSS: KENAI FLIGHT SERVICE STATION [907-283-7211]
Attendance: UNATNDD
Pattern altitude: TRAFFIC PATTERN SHALL REMAIN WEST OF THE PARKS HIGHWAY.
Wind indicator: yes
Segmented circle: no

Airport Communications

CTAF/UNICOM: 122.8
WX AWOS-3P at IYS (17 nm SE): 135.25 (907-373-3801)

Nearby radio navigation aids

VOR radial/distance  VOR name  Freq  Var
BGQr323/9.0BIG LAKE VORTAC112.5019E
TEDr337/32.8ANCHORAGE VOR/DME113.1518E
TKAr159/35.2TALKEETNA VOR/DME116.2019E

 
NDB name  Hdg/Dist  Freq  Var  ID
PETERS CREEK163/37.130516EPEE .--. . .

Airport Services

Runway Information

Runway 4/22

Dimensions: 2000 x 30 ft. / 610 x 9 m
Surface: gravel
RUNWAY 4  RUNWAY 22
Traffic pattern: rightleft

Runway 15/33

Dimensions: 1200 x 30 ft. / 366 x 9 m
Surface: gravel
RUNWAY 15  RUNWAY 33
Traffic pattern: leftright

Airport Ownership and Management from official FAA records

Ownership: Privately-owned
Owner: HONEYBEE LAKE AERO PARK OWNERS ASOC
PO BOX 957
WILLOW, AK 99688
Phone (907) 495-3674
PRESIDENT: JEFF BERTRAND
Manager: MIKE FRAHM
PO BOX 957
WILLOW, AK 99688
Phone 907-495-3674

Airport Operational Statistics

Aircraft based on the field: 7
Single engine airplanes: 7
    

Additional Remarks

OWNER DESIRES ARPT NOT BE CHARTED.

Instrument Procedures

There are no published instrument procedures at 25AK.

Some nearby airports with instrument procedures:

PAUO - Willow Airport (3 nm N)
PAGQ - Big Lake Airport (13 nm SE)
PAWS - Wasilla Airport (17 nm SE)
PAED - Elmendorf Air Force Base (29 nm S)
PAAQ - Warren "Bud" Woods Palmer Municipal Airport (29 nm E)
 
Loc | Ops | Rwys | IFR | FBO | Links
Com | Nav | Svcs | Stats | Notes

Crowley
 
Area around 25AK (Honeybee Lake Aero Park Airport)
 
Road maps at: MapQuest Bing Google
 
Aerial photo
No photo
 
Sectional chart

 
Airport distance calculator
Flying to Honeybee Lake Aero Park Airport? Find the distance to fly.

From to 25AK

Sunrise and sunset
Times for 03-Aug-2021
 Local
(UTC-8)
 Zulu
(UTC)
Morning civil twilight04:2912:29
Sunrise05:3613:36
Sunset22:3706:37
Evening civil twilight23:4307:43

Current date and time
Zulu (UTC)  04-Aug-2021 03:15:27
Local (UTC-8)  03-Aug-2021 19:15:27
 
METAR
TAF
PAAQ 
29nm E 
031740Z 0318/0418 VRB03KT P6SM BKN040 FM040400 24007KT P6SM VCSH SCT050 BKN080 FM041200 VRB03KT P6SM OVC050
PAED 
29nm S 
040200Z 0402/0508 24012KT 9999 FEW040 SCT100 BKN200 QNH2984INS WND VRB06KT AFT 0408 BECMG 0415/0416 27006KT 9999 FEW040 SCT080 SCT180 QNH2978INS BECMG 0420/0421 24012KT 9999 BKN045 OVC100 QNH2975INS TX19/0423Z TN13/0414Z
PANC 
33nm S 
031740Z 0318/0424 17004KT P6SM SKC FM032000 26007KT P6SM SCT100 BKN200 FM040600 VRB05KT P6SM VCSH BKN060 OVC100 FM041800 VRB03KT P6SM OVC050
PATK 
35nm N 
031740Z 0318/0418 VRB03KT P6SM SKC FM041200 VRB03KT P6SM OVC050
NOTAMs
Click for the latest NOTAMs
NOTAMs are issued by the DoD/FAA and will open in a separate window not controlled by AirNav.

 

 
 

Would you like to see your business listed on this page?

 If your business provides an interesting product or service to pilots, flight crews, aircraft, or users of the Honeybee Lake Aero Park Airport, you should consider listing it here.  To start the listing process, click on the button below
 
Add a business
 

Other Pages about Honeybee Lake Aero Park Airport

Update a link
 
Copyright © AirNav, LLC. All rights reserved. Privacy Policy  Contact